Weather Service Report


967 
ASUS44 KFWD 281715
RWRTX 
NORTH TEXAS HOURLY WEATHER ROUNDUP
NATIONAL WEATHER SERVICE FORT WORTH TX
1200 PM CDT SAT MAR 28 2015

NOTE: "FAIR" INDICATES FEW OR NO CLOUDS BELOW 12,000 FEET WITH NO
SIGNIFICANT WEATHER AND/OR OBSTRUCTIONS TO VISIBILITY.

TXZ118-119-281800-
DALLAS/FORT WORTH METROPLEX
  
CITY           SKY/WX    TMP DP  RH WIND       PRES   REMARKS
DFW AIRPORT    MOSUNNY   68  44  42 S8        30.06F                  
DALLAS LOVE    MOSUNNY   69  42  37 S10       30.07F                  
FTW MEACHAM    SUNNY     70  46  42 S10       30.06F                  
DAL-EXECUTIVE  SUNNY     68  44  42 S12G18    30.07F                  
FTW-ALLIANCE   MOSUNNY   70  44  39 S12       30.06F                  
FTW-SPINKS     SUNNY     70  46  43 S14       30.09S                  
ARLINGTON      SUNNY     69  42  37 SE12      30.08S                  
GRAND PRAIRIE  SUNNY     68  46  45 S10       30.09F                  
ADDISON        SUNNY     66  41  39 S12       30.07F                  
MESQUITE       SUNNY     66  43  42 S15       30.09F                  
LANCASTER      SUNNY     65  46  48 SE13      30.09F                  
$$

TXZ091>094-102>105-117-120-121-131>134-281800-
NORTH CENTRAL TEXAS
  
CITY           SKY/WX    TMP DP  RH WIND       PRES   REMARKS
SHRMAN/DENISON SUNNY     65  49  55 S10       30.09F                  
GAINESVILLE    SUNNY     65  45  48 S10       30.09F                  
BOWIE          SUNNY     69  42  38 S9        30.05F                  
BRIDGEPORT     SUNNY     69  45  41 S7        30.07F                  
DECATUR        SUNNY     68  41  37 SW7       30.06F                  
DENTON         SUNNY     68  44  42 S13       30.07F                  
MCKINNEY       SUNNY     65  45  48 SE10      30.08F                  
GREENVILLE     SUNNY     66  41  39 S12       30.10F                  
ROCKWALL       SUNNY     67  44  44 S15G23    30.08F                  
TERRELL        SUNNY     66  45  46 S13       30.10F                  
WAXAHACHIE     SUNNY     66  49  52 SE10      30.10S                  
CLEBURNE       SUNNY     68  46  45 S12       30.08F                  
GRANBURY         N/A     75  45  33 S9        30.06F                  
$$

TXZ083>090-098>101-113>116-127>130-139>142-154-155-281800-
WESTERN NORTH TEXAS
  
CITY           SKY/WX    TMP DP  RH WIND       PRES   REMARKS
WICHITA FALLS  SUNNY     67  45  45 SW7       30.02F                  
WF-KICKAPOO    SUNNY     69  44  40 SW7       30.04F                  
VERNON         SUNNY     68  37  31 SW5       30.03S                  
ABILENE        SUNNY     74  42  31 SW18G24   30.04S                  
ABILENE-DYESS  SUNNY     76  47  35 S17       30.03S                  
BRECKENRIDGE   SUNNY     78  41  27 SW15      30.02F HAZE             
GRAHAM         SUNNY     75  44  33 S8        30.02F                  
MINERAL WELLS  SUNNY     71  46  40 S5        30.03F                  
STEPHENVILLE   SUNNY     74  37  25 SW16G22   30.08F                  
COMANCHE       SUNNY     74  45  35 SW12      30.07F                  
BROWNWOOD      SUNNY     73  43  33 SW15      30.07F                  
COLEMAN        SUNNY     76  44  31 SW15      30.07F                  
BRADY          SUNNY     77  37  24 S15       30.09S                  
$$

TXZ143>147-156>162-174-175-281800-
CENTRAL TEXAS
  
CITY           SKY/WX    TMP DP  RH WIND       PRES   REMARKS
WACO           SUNNY     71  49  45 S10       30.09F                  
WACO-TSTC      SUNNY     72  46  40 SW10      30.10F                  
WACO-MCGREGOR  SUNNY     72  48  43 S13       30.10F                  
HILLSBORO      SUNNY     69  49  48 S8        30.09F                  
CORSICANA      SUNNY     71  44  37 S14       30.11F                  
MEXIA          SUNNY     72  46  39 S12G17    30.10F                  
HEARNE         SUNNY     74  47  38 S13       30.13F                  
CAMERON        SUNNY     74  44  34 SW18G26   30.12F                  
TEMPLE         SUNNY     73  48  40 S15       30.08F                  
KILLEEN        SUNNY     75  39  27 S12G21    30.08F                  
KILLEEN-SKYLRK SUNNY     79  43  27 MISG      30.09F                  
FORT HOOD      SUNNY     78  38  23 S14       30.08F                  
GATESVILLE     SUNNY     75  43  31 SW12      30.10F                  
HAMILTON       SUNNY     76  39  26 SW21G28   30.08F                  
LAMPASAS       SUNNY     76  41  29 SW10      30.09S                  
$$

TXZ095>097-106>112-122>126-135>138-148>153-164>167-281800-
EAST TEXAS
  
CITY           SKY/WX    TMP DP  RH WIND       PRES   REMARKS
SULPHUR SPRNGS SUNNY     64  42  45 S7        30.14S                  
MOUNT PLEASANT MOSUNNY   63  44  49 SE10      30.15F                  
GILMER         MOSUNNY   64  42  44 SE7       30.14S                  
MINEOLA        SUNNY     66  36  32 S14G20    30.12F                  
TYLER          SUNNY     70  41  34 S14G20    30.12F                  
LONGVIEW       MOSUNNY   66  44  45 SE7       30.14F                  
MARSHALL       MOSUNNY   65  45  47 S8        30.17F                  
ATHENS         SUNNY     66  43  42 S9G18     30.10F                  
PALESTINE      SUNNY     71  44  37 S12G20    30.14F                  
JACKSONVILLE   SUNNY     67  42  38 S12G22    30.15F                  
HENDERSON      SUNNY     68  43  39 S12       30.14F                  
NACOGDOCHES    SUNNY     66  45  45 S10G16    30.16F                  
LUFKIN         SUNNY     74  44  34 S12       30.16F                  
$$

SUPPLEMENTAL OBSERVATIONS (CENTRAL)
  
CITY           SKY/WX    TMP DP  RH WIND       PRES   REMARKS
LAKE TEXOMA      N/A     63  41  45 S7          N/A                   
CADDO GRASSLND   N/A     63  41  45 S8          N/A                   
PAT MAYSE LAKE   N/A     57  37  47 SE10        N/A                   
GREENVILLE       N/A     64  39  39 S10         N/A                   
CEDAR HILL       N/A     73  43  33 S8          N/A                   
ATHENS           N/A     70  41  35 S12         N/A                   
LAKE LIMESTONE   N/A     73  39  29 SW14        N/A                   
MCGREGOR         N/A     75  46  35 SW8G16      N/A                   
TEMPLE           N/A     75  45  33 S14         N/A                   
$$

SUPPLEMENTAL OBSERVATIONS (WEST)
  
CITY           SKY/WX    TMP DP  RH WIND       PRES   REMARKS
MILLERS CREEK    N/A     73  41  31 SW13        N/A                   
POSSUM KINGDOM   N/A     79  39  24 SW9         N/A                   
LBJ GRASSLAND    N/A     72  45  37 S7          N/A                   
GRANBURY         N/A     75  43  31 S13         N/A                   
COMANCHE         N/A     75  45  33 SW14        N/A                   
HAMBY            N/A     73  43  33 SW17G25     N/A                   
IVIE RESERVOIR   N/A     81  39  22 SW12        N/A                   
COLORADO BEND    N/A     75  37  25 SW15G24     N/A                   
$$

SUPPLEMENTAL OBSERVATIONS (EAST)
  
CITY           SKY/WX    TMP DP  RH WIND       PRES   REMARKS
TEXARKANA        N/A     61  41  48 E5          N/A                   
LINDEN           N/A     63  41  45 S3          N/A                   
CADDO LAKE       N/A     63  41  45 SE6         N/A                   
LUFKIN           N/A     72  41  33 MISG        N/A                   
N SABINE NF      N/A     70  48  46 MISG        N/A                   
$$

SUPPLEMENTAL OBSERVATIONS ARE A COLLECTION OF AUTOMATED INSTRUMENTS
THAT ARE MAINTAINED BY A VARIETY OF FEDERAL AND STATE AGENCIES. 
CERTAIN ELEMENTS...SUCH AS HUMIDITY VALUES AND SUSTAINED WIND 
SPEEDS...MAY BE APPROXIMATED.


Return to Home page


Western Regional Climate Center, wrcc@dri.edu